GW1299 Weather Reports


time (UTC)temp
C
wind
direction
speed
KPH
gust
KPH
rain 1hr
cm
rain 24hr
cm
rain mn
cm
humidity
%
barometer
mb
20260510143028 23 77 0.0 8.0 0.00 0.00 0.00 57 1013.2
20260510141525 22 92 0.0 3.2 0.00 0.00 0.00 58 1013.2
20260510140023 22 216 1.6 6.4 0.00 0.00 0.00 58 1013.3
20260510134519 22 255 0.0 4.8 0.00 0.00 0.00 59 1013.3
20260510133016 20 41 0.0 3.2 0.00 0.00 0.00 66 1013.3
20260510131511 19 37 0.0 3.2 0.00 0.00 0.00 68 1013.3
20260510130007 19 116 0.0 3.2 0.00 0.00 0.00 71 1013.6
20260510124503 18 68 0.0 3.2 0.00 0.00 0.00 72 1013.6
20260510123101 17 84 0.0 3.2 0.00 0.00 0.00 75 1013.6
20260510121557 17 27 0.0 3.2 0.00 0.00 0.00 77 1013.6
20260510120051 16 64 0.0 3.2 0.00 0.00 0.00 79 1013.4
20260510114556 15 58 0.0 0.0 0.00 0.00 0.00 81 1013.3
20260510113044 13 58 0.0 3.2 0.00 0.00 0.00 87 1013.2
20260510111539 12 58 0.0 1.6 0.00 0.00 0.00 91 1012.8
20260510110041 10 58 0.0 3.2 0.00 0.00 0.00 94 1012.6
20260510104523 10 99 0.0 0.0 0.00 0.00 0.00 93 1012.2
20260510103020 9 99 0.0 3.2 0.00 0.00 0.00 93 1012.0
20260510101517 9 99 0.0 3.2 0.00 0.00 0.00 92 1011.9
20260510100016 9 99 0.0 0.0 0.00 0.00 0.00 92 1011.9
20260510094516 9 99 0.0 3.2 0.00 0.00 0.00 92 1011.9
20260510093016 10 99 0.0 0.0 0.00 0.00 0.00 92 1011.9
20260510091511 10 99 0.0 0.0 0.00 0.00 0.00 92 1011.7
20260510090010 10 99 0.0 3.2 0.00 0.00 0.00 92 1011.5
20260510084511 10 99 0.0 0.0 0.00 0.00 0.00 93 1011.3
20260510083007 10 99 0.0 0.0 0.00 0.00 0.00 92 1011.4
20260510081504 10 99 0.0 0.0 0.00 0.00 0.00 92 1011.1
20260510080003 10 99 0.0 3.2 0.00 0.00 0.00 92 1010.7
20260510074624 10 99 0.0 1.6 0.00 0.00 0.00 92 1010.6
20260510073058 11 99 0.0 0.0 0.00 0.00 0.00 92 1010.5
20260510071601 11 99 0.0 3.2 0.00 0.00 0.00 92 1010.5
20260510070054 11 99 0.0 3.2 0.00 0.00 0.00 91 1010.5
20260510064608 11 87 0.0 3.2 0.00 0.00 0.00 91 1010.3
20260510063057 11 87 0.0 3.2 0.00 0.00 0.00 91 1010.3
20260510061549 12 87 0.0 0.0 0.00 0.00 0.00 91 1010.3
20260510060055 12 87 0.0 3.2 0.00 0.00 0.00 91 1010.2
20260510054547 12 87 0.0 0.0 0.00 0.00 0.00 91 1010.3
20260510053045 12 87 0.0 0.0 0.00 0.00 0.00 90 1010.2
20260510051553 12 87 0.0 0.0 0.00 0.00 0.00 90 1010.3
20260510050043 12 87 0.0 0.0 0.00 0.00 0.00 90 1010.4
20260510044542 12 87 0.0 0.0 0.00 0.00 0.00 89 1010.4
20260510043047 13 87 0.0 0.0 0.00 0.00 0.00 89 1010.5
20260510041549 13 87 0.0 0.0 0.00 0.00 0.00 89 1010.4
20260510040039 13 87 0.0 0.0 0.00 0.00 0.00 88 1010.3
20260510034533 13 87 0.0 0.0 0.00 0.00 0.00 87 1010.3
20260510033034 14 87 0.0 3.2 0.00 0.00 0.00 87 1010.3
20260510031532 14 87 0.0 0.0 0.00 0.00 0.00 85 1010.2
20260510030031 15 87 0.0 3.2 0.00 0.00 0.00 85 1010.2
20260510024530 15 87 0.0 3.2 0.00 0.00 0.00 83 1010.0
20260510023029 15 87 0.0 3.2 0.00 0.00 0.00 82 1010.0
20260510021532 15 124 0.0 3.2 0.00 0.00 0.00 82 1010.1
20260510020029 15 124 0.0 3.2 0.00 0.00 0.00 82 1010.0
20260510014529 15 113 0.0 3.2 0.00 0.00 0.00 82 1009.7
20260510013029 16 116 0.0 3.2 0.00 0.00 0.00 82 1009.5
20260510011534 16 64 0.0 3.2 0.00 0.00 0.00 80 1009.4
20260510010035 16 74 0.0 0.0 0.00 0.00 0.00 76 1009.4
20260510004523 17 74 0.0 0.0 0.00 0.00 0.00 74 1009.2
20260510003024 17 60 0.0 3.2 0.00 0.00 0.00 72 1009.0
20260510001525 18 95 0.0 3.2 0.00 0.00 0.00 69 1008.9
20260510000021 18 130 0.0 3.2 0.00 0.00 0.00 66 1008.9
20260509234524 19 112 3.2 6.4 0.00 0.00 0.00 65 1008.6
20260509233019 19 93 1.6 6.4 0.00 0.00 0.00 66 1008.5
20260509231528 20 60 0.0 3.2 0.00 0.00 0.00 67 1008.5
20260509230019 20 89 1.6 6.4 0.00 0.00 0.00 64 1008.5
20260509224517 20 49 1.6 6.4 0.00 0.00 0.00 65 1008.4
20260509223021 20 32 0.0 3.2 0.00 0.00 0.00 65 1008.5
20260509221529 21 54 0.0 4.8 0.00 0.00 0.00 65 1008.5
20260509220019 21 137 0.0 3.2 0.00 0.00 0.00 65 1008.6
20260509214516 21 107 1.6 6.4 0.00 0.00 0.00 65 1008.5
20260509213014 20 18 0.0 3.2 0.00 0.00 0.00 65 1008.6
20260509211514 20 343 0.0 8.0 0.00 0.00 0.00 65 1008.6
20260509210015 20 125 1.6 3.2 0.00 0.00 0.00 65 1008.4
20260509204511 20 44 3.2 6.4 0.00 0.00 0.00 66 1008.3
20260509203009 20 115 1.6 8.0 0.00 0.00 0.00 68 1008.3
20260509201507 20 122 1.6 9.7 0.00 0.00 0.00 69 1008.7
20260509200005 19 95 3.2 14.5 0.00 0.00 0.00 70 1008.9
20260509194501 19 116 0.0 4.8 0.00 0.00 0.00 66 1009.1
20260509193001 20 239 0.0 3.2 0.00 0.00 0.00 63 1009.3
20260509191616 20 69 0.0 3.2 0.00 0.00 0.00 61 1009.2
20260509190112 20 109 1.6 4.8 0.00 0.00 0.00 64 1009.4
20260509184555 20 91 0.0 3.2 0.00 0.00 0.00 59 1009.9
20260509183055 20 99 0.0 3.2 0.00 0.00 0.00 56 1009.9
20260509181555 20 37 0.0 3.2 0.00 0.00 0.00 56 1009.9
20260509180052 20 143 0.0 4.8 0.00 0.00 0.00 56 1010.3
20260509174551 20 80 0.0 3.2 0.00 0.00 0.00 58 1010.3
20260509173057 20 222 0.0 3.2 0.00 0.00 0.00 56 1010.3
20260509171605 20 27 0.0 4.8 0.00 0.00 0.00 56 1010.4
20260509170050 20 97 3.2 8.0 0.00 0.00 0.00 54 1010.4
20260509164552 20 114 0.0 11.3 0.00 0.00 0.00 53 1010.3
20260509163054 21 350 0.0 4.8 0.00 0.00 0.00 54 1010.3
20260509161546 21 349 1.6 9.7 0.00 0.00 0.00 54 1010.4
20260509160044 21 74 0.0 9.7 0.00 0.00 0.00 55 1010.6
20260509154544 21 111 3.2 9.7 0.00 0.00 0.00 55 1010.8
20260509153042 20 326 3.2 9.7 0.00 0.00 0.00 57 1010.8
20260509151537 20 124 3.2 11.3 0.00 0.00 0.00 59 1011.1
20260509150034 19 345 0.0 6.4 0.00 0.00 0.00 61 1011.3
20260509144530 19 114 0.0 4.8 0.00 0.00 0.00 64 1011.7